Time,TemperatureF,DewpointF,PressureIn,WindDirection,WindDirectionDegrees,WindSpeedMPH,WindSpeedGustMPH,Humidity,HourlyPrecipIn,Conditions,Clouds,dailyrainin,SoftwareType,DateUTC
2013-05-27 00:02:00,66.0,64.0,30.05,SSE,157,2.0,4.0,95,-99.99,,,-99.99,,2013-05-27 04:02:00,
2013-05-27 00:12:00,66.0,65.0,30.04,SSE,157,3.0,5.0,95,-99.99,,,-99.99,,2013-05-27 04:12:00,
2013-05-27 00:23:00,66.0,65.0,30.03,SSE,157,3.0,7.0,96,-99.99,,,-99.99,,2013-05-27 04:23:00,
2013-05-27 00:33:00,66.0,65.0,30.04,South,180,4.0,7.0,95,-99.99,,,-99.99,,2013-05-27 04:33:00,
2013-05-27 00:42:00,66.0,65.0,30.04,South,180,4.0,7.0,94,-99.99,,,-99.99,,2013-05-27 04:42:00,
2013-05-27 00:52:00,66.0,64.0,30.03,SSE,157,5.0,9.0,94,-99.99,,,-99.99,,2013-05-27 04:52:00,
2013-05-27 01:02:00,66.0,64.0,30.03,SSE,157,5.0,10.0,93,-99.99,,,-99.99,,2013-05-27 05:02:00,
2013-05-27 01:12:00,66.0,64.0,30.04,SSE,157,6.0,9.0,93,-99.99,,,-99.99,,2013-05-27 05:12:00,
2013-05-27 01:22:00,66.0,64.0,30.03,SSE,157,6.0,9.0,93,-99.99,,,-99.99,,2013-05-27 05:22:00,
2013-05-27 01:32:00,67.0,64.0,30.03,SSE,157,7.0,11.0,91,-99.99,,,-99.99,,2013-05-27 05:32:00,
2013-05-27 01:42:00,67.0,64.0,30.02,SSE,157,7.0,10.0,92,-99.99,,,-99.99,,2013-05-27 05:42:00,
2013-05-27 01:52:00,66.0,64.0,30.02,SSE,157,6.0,11.0,92,-99.99,,,-99.99,,2013-05-27 05:52:00,
2013-05-27 02:01:00,66.0,64.0,30.02,SSE,157,6.0,9.0,94,-99.99,,,-99.99,,2013-05-27 06:01:00,
2013-05-27 02:11:00,66.0,64.0,30.02,SSE,157,6.0,11.0,94,-99.99,,,-99.99,,2013-05-27 06:11:00,
2013-05-27 02:21:00,66.0,65.0,30.01,South,180,6.0,11.0,94,-99.99,,,-99.99,,2013-05-27 06:21:00,
2013-05-27 02:32:00,66.0,65.0,30.01,South,180,7.0,11.0,95,-99.99,,,-99.99,,2013-05-27 06:32:00,
2013-05-27 02:42:00,66.0,65.0,30.00,SSE,157,6.0,10.0,96,-99.99,,,-99.99,,2013-05-27 06:42:00,
2013-05-27 02:52:00,66.0,65.0,30.00,SSE,157,6.0,13.0,96,-99.99,,,-99.99,,2013-05-27 06:52:00,
2013-05-27 03:02:00,66.0,65.0,30.00,South,180,7.0,9.0,97,-99.99,,,-99.99,,2013-05-27 07:02:00,
2013-05-27 03:11:00,66.0,65.0,30.01,SSW,202,6.0,8.0,97,-99.99,,,-99.99,,2013-05-27 07:11:00,
2013-05-27 03:21:00,68.0,66.0,30.01,SW,225,8.0,16.0,95,-99.99,,,-99.99,,2013-05-27 07:21:00,
2013-05-27 03:31:00,68.0,65.0,30.02,West,270,12.0,21.0,90,-99.99,,,-99.99,,2013-05-27 07:31:00,
2013-05-27 03:41:00,66.0,64.0,30.03,West,270,10.0,15.0,94,-99.99,,,-99.99,,2013-05-27 07:41:00,
2013-05-27 03:52:00,65.0,64.0,30.02,West,270,6.0,8.0,96,-99.99,,,-99.99,,2013-05-27 07:52:00,
2013-05-27 04:02:00,64.0,63.0,30.02,SW,225,4.0,6.0,97,-99.99,,,-99.99,,2013-05-27 08:02:00,
2013-05-27 04:11:00,64.0,63.0,30.01,SSW,202,4.0,5.0,97,-99.99,,,-99.99,,2013-05-27 08:11:00,
2013-05-27 04:21:00,64.0,63.0,30.00,SSW,202,6.0,8.0,98,-99.99,,,-99.99,,2013-05-27 08:21:00,
2013-05-27 04:32:00,63.0,63.0,29.97,South,180,9.0,13.0,99,-99.99,,,-99.99,,2013-05-27 08:32:00,
2013-05-27 04:42:00,63.0,63.0,29.95,South,180,11.0,17.0,98,-99.99,,,-99.99,,2013-05-27 08:42:00,
2013-05-27 04:52:00,63.0,62.0,29.94,South,180,7.0,11.0,98,-99.99,,,-99.99,,2013-05-27 08:52:00,
2013-05-27 05:02:00,63.0,62.0,29.93,South,180,5.0,9.0,97,-99.99,,,-99.99,,2013-05-27 09:02:00,
2013-05-27 05:11:00,63.0,62.0,29.95,SW,225,7.0,14.0,96,-99.99,,,-99.99,,2013-05-27 09:11:00,
2013-05-27 05:21:00,63.0,63.0,29.97,SW,225,12.0,17.0,97,-99.99,,,-99.99,,2013-05-27 09:21:00,
2013-05-27 05:33:00,63.0,63.0,30.00,WSW,247,9.0,14.0,97,-99.99,,,-99.99,,2013-05-27 09:33:00,
2013-05-27 05:42:00,63.0,62.0,30.01,West,270,9.0,13.0,97,-99.99,,,-99.99,,2013-05-27 09:42:00,
2013-05-27 05:52:00,63.0,62.0,30.02,West,270,8.0,13.0,96,-99.99,,,-99.99,,2013-05-27 09:52:00,
2013-05-27 06:02:00,63.0,62.0,30.02,West,270,7.0,11.0,97,-99.99,,,-99.99,,2013-05-27 10:02:00,
2013-05-27 06:12:00,63.0,62.0,30.02,West,270,7.0,10.0,97,-99.99,,,-99.99,,2013-05-27 10:12:00,
2013-05-27 06:22:00,63.0,62.0,30.02,West,270,5.0,9.0,98,-99.99,,,-99.99,,2013-05-27 10:22:00,
2013-05-27 06:32:00,62.0,62.0,30.01,West,270,6.0,8.0,98,-99.99,,,-99.99,,2013-05-27 10:32:00,
2013-05-27 06:42:00,62.0,61.0,30.01,West,270,5.0,7.0,98,-99.99,,,-99.99,,2013-05-27 10:42:00,
2013-05-27 06:52:00,62.0,61.0,30.01,WNW,292,4.0,6.0,99,-99.99,,,-99.99,,2013-05-27 10:52:00,
2013-05-27 07:02:00,61.0,61.0,30.02,WNW,292,4.0,5.0,99,-99.99,,,-99.99,,2013-05-27 11:02:00,
2013-05-27 07:11:00,61.0,61.0,30.02,NW,315,2.0,3.0,99,-99.99,,,-99.99,,2013-05-27 11:11:00,
2013-05-27 07:22:00,61.0,61.0,30.02,NW,315,2.0,4.0,99,-99.99,,,-99.99,,2013-05-27 11:22:00,
2013-05-27 07:32:00,62.0,61.0,30.02,WNW,292,0.0,-999.0,99,-99.99,,,-99.99,,2013-05-27 11:32:00,
2013-05-27 07:42:00,63.0,62.0,30.01,WNW,292,0.0,-999.0,98,-99.99,,,-99.99,,2013-05-27 11:42:00,
2013-05-27 07:52:00,63.0,62.0,30.01,SW,225,3.0,4.0,97,-99.99,,,-99.99,,2013-05-27 11:52:00,
2013-05-27 08:01:00,63.0,62.0,30.00,SSW,202,2.0,3.0,96,-99.99,,,-99.99,,2013-05-27 12:01:00,
2013-05-27 08:11:00,64.0,63.0,30.00,SSW,202,2.0,3.0,94,-99.99,,,-99.99,,2013-05-27 12:11:00,
2013-05-27 08:21:00,65.0,63.0,30.00,SSW,202,0.0,-999.0,93,-99.99,,,-99.99,,2013-05-27 12:21:00,
2013-05-27 08:32:00,65.0,63.0,30.00,SSW,202,2.0,4.0,93,-99.99,,,-99.99,,2013-05-27 12:32:00,
2013-05-27 08:42:00,65.0,63.0,30.01,SW,225,0.0,-999.0,92,-99.99,,,-99.99,,2013-05-27 12:42:00,
2013-05-27 08:52:00,66.0,63.0,30.01,SW,225,2.0,3.0,91,-99.99,,,-99.99,,2013-05-27 12:52:00,
2013-05-27 09:01:00,66.0,63.0,30.02,SW,225,2.0,3.0,92,-99.99,,,-99.99,,2013-05-27 13:01:00,
2013-05-27 09:11:00,66.0,63.0,30.01,West,270,0.0,-999.0,90,-99.99,,,-99.99,,2013-05-27 13:11:00,
2013-05-27 09:21:00,68.0,63.0,30.01,WSW,247,0.0,-999.0,85,-99.99,,,-99.99,,2013-05-27 13:21:00,
2013-05-27 09:32:00,68.0,63.0,30.00,SSW,202,3.0,6.0,84,-99.99,,,-99.99,,2013-05-27 13:32:00,
2013-05-27 09:41:00,69.0,64.0,30.00,SSW,202,3.0,5.0,83,-99.99,,,-99.99,,2013-05-27 13:41:00,
2013-05-27 09:52:00,69.0,64.0,30.00,SSW,202,4.0,6.0,83,-99.99,,,-99.99,,2013-05-27 13:52:00,
2013-05-27 10:01:00,70.0,64.0,30.00,South,180,3.0,6.0,83,-99.99,,,-99.99,,2013-05-27 14:01:00,
2013-05-27 10:11:00,69.0,64.0,30.00,South,180,4.0,6.0,83,-99.99,,,-99.99,,2013-05-27 14:11:00,
2013-05-27 10:21:00,70.0,65.0,30.00,SSE,157,3.0,4.0,84,-99.99,,,-99.99,,2013-05-27 14:21:00,
2013-05-27 10:32:00,70.0,65.0,30.00,SE,135,3.0,6.0,84,-99.99,,,-99.99,,2013-05-27 14:32:00,
2013-05-27 10:42:00,70.0,65.0,29.99,SE,135,5.0,6.0,84,-99.99,,,-99.99,,2013-05-27 14:42:00,
2013-05-27 10:51:00,70.0,65.0,29.98,ESE,112,4.0,6.0,85,-99.99,,,-99.99,,2013-05-27 14:51:00,
2013-05-27 11:01:00,70.0,65.0,29.98,ESE,112,5.0,8.0,85,-99.99,,,-99.99,,2013-05-27 15:01:00,
2013-05-27 11:11:00,70.0,66.0,29.97,SE,135,5.0,8.0,86,-99.99,,,-99.99,,2013-05-27 15:11:00,
2013-05-27 11:21:00,70.0,66.0,29.96,ESE,112,5.0,9.0,86,-99.99,,,-99.99,,2013-05-27 15:21:00,
2013-05-27 11:33:00,70.0,66.0,29.97,ESE,112,5.0,9.0,88,-99.99,,,-99.99,,2013-05-27 15:33:00,
2013-05-27 11:43:00,70.0,66.0,29.96,ESE,112,6.0,10.0,88,-99.99,,,-99.99,,2013-05-27 15:43:00,
2013-05-27 11:53:00,70.0,66.0,29.96,ESE,112,6.0,9.0,88,-99.99,,,-99.99,,2013-05-27 15:53:00,
2013-05-27 12:02:00,70.0,67.0,29.96,SE,135,4.0,7.0,89,-99.99,,,-99.99,,2013-05-27 16:02:00,
2013-05-27 12:12:00,69.0,67.0,29.96,SE,135,4.0,7.0,92,-99.99,,,-99.99,,2013-05-27 16:12:00,
2013-05-27 12:23:00,69.0,67.0,29.97,SE,135,6.0,9.0,93,-99.99,,,-99.99,,2013-05-27 16:23:00,
2013-05-27 12:33:00,69.0,67.0,29.96,SE,135,5.0,8.0,94,-99.99,,,-99.99,,2013-05-27 16:33:00,
2013-05-27 12:42:00,69.0,68.0,29.97,SE,135,5.0,9.0,94,-99.99,,,-99.99,,2013-05-27 16:42:00,
2013-05-27 12:52:00,70.0,68.0,29.97,SE,135,4.0,7.0,95,-99.99,,,-99.99,,2013-05-27 16:52:00,
2013-05-27 13:02:00,70.0,68.0,29.97,SE,135,3.0,6.0,95,-99.99,,,-99.99,,2013-05-27 17:02:00,
2013-05-27 13:11:00,70.0,69.0,29.97,SSE,157,3.0,6.0,96,-99.99,,,-99.99,,2013-05-27 17:11:00,
2013-05-27 13:22:00,71.0,69.0,29.98,SW,225,2.0,5.0,96,-99.99,,,-99.99,,2013-05-27 17:22:00,
2013-05-27 13:32:00,69.0,68.0,29.99,NW,315,11.0,17.0,95,-99.99,,,-99.99,,2013-05-27 17:32:00,
2013-05-27 13:43:00,66.0,66.0,30.02,WNW,292,11.0,17.0,97,-99.99,,,-99.99,,2013-05-27 17:43:00,
2013-05-27 13:52:00,65.0,65.0,30.00,NNW,337,15.0,21.0,99,-99.99,,,-99.99,,2013-05-27 17:52:00,
2013-05-27 14:02:00,64.0,64.0,30.00,NNW,337,7.0,12.0,100,-99.99,,,-99.99,,2013-05-27 18:02:00,
2013-05-27 14:11:00,64.0,64.0,29.99,East,90,4.0,7.0,100,-99.99,,,-99.99,,2013-05-27 18:11:00,
2013-05-27 14:22:00,64.0,64.0,30.00,NW,315,4.0,7.0,100,-99.99,,,-99.99,,2013-05-27 18:22:00,
2013-05-27 14:32:00,65.0,65.0,30.00,East,90,2.0,4.0,100,-99.99,,,-99.99,,2013-05-27 18:32:00,
2013-05-27 14:42:00,65.0,65.0,30.03,SSW,202,3.0,4.0,100,-99.99,,,-99.99,,2013-05-27 18:42:00,
2013-05-27 14:52:00,65.0,65.0,30.06,WNW,292,6.0,12.0,100,-99.99,,,-99.99,,2013-05-27 18:52:00,
2013-05-27 15:01:00,64.0,64.0,30.06,WNW,292,6.0,8.0,100,-99.99,,,-99.99,,2013-05-27 19:01:00,
2013-05-27 15:11:00,64.0,64.0,30.03,NNW,337,8.0,10.0,100,-99.99,,,-99.99,,2013-05-27 19:11:00,
2013-05-27 15:21:00,64.0,64.0,30.01,NNE,22,4.0,8.0,100,-99.99,,,-99.99,,2013-05-27 19:21:00,
2013-05-27 15:32:00,64.0,64.0,30.00,NNE,22,4.0,6.0,100,-99.99,,,-99.99,,2013-05-27 19:32:00,
2013-05-27 15:42:00,64.0,64.0,30.00,NNE,22,0.0,-999.0,100,-99.99,,,-99.99,,2013-05-27 19:42:00,
2013-05-27 15:52:00,64.0,64.0,30.00,SE,135,0.0,-999.0,100,-99.99,,,-99.99,,2013-05-27 19:52:00,
2013-05-27 16:01:00,64.0,64.0,29.99,NNE,22,2.0,4.0,100,-99.99,,,-99.99,,2013-05-27 20:01:00,
2013-05-27 16:11:00,64.0,63.0,29.96,WSW,247,0.0,-999.0,98,-99.99,,,-99.99,,2013-05-27 20:11:00,
2013-05-27 16:22:00,64.0,63.0,29.94,SE,135,5.0,6.0,98,-99.99,,,-99.99,,2013-05-27 20:22:00,
2013-05-27 16:32:00,64.0,63.0,29.92,SE,135,7.0,11.0,98,-99.99,,,-99.99,,2013-05-27 20:32:00,
2013-05-27 16:42:00,64.0,63.0,29.88,SE,135,10.0,13.0,97,-99.99,,,-99.99,,2013-05-27 20:42:00,
2013-05-27 16:52:00,64.0,63.0,29.83,ESE,112,11.0,16.0,97,-99.99,,,-99.99,,2013-05-27 20:52:00,
2013-05-27 17:01:00,64.0,63.0,29.82,ESE,112,10.0,19.0,96,-99.99,,,-99.99,,2013-05-27 21:01:00,
2013-05-27 17:12:00,64.0,63.0,29.82,SSE,157,12.0,18.0,96,-99.99,,,-99.99,,2013-05-27 21:12:00,
2013-05-27 17:21:00,64.0,63.0,29.82,SSE,157,10.0,17.0,96,-99.99,,,-99.99,,2013-05-27 21:21:00,
2013-05-27 17:33:00,65.0,63.0,29.81,SE,135,8.0,15.0,96,-99.99,,,-99.99,,2013-05-27 21:33:00,
2013-05-27 17:43:00,65.0,63.0,29.79,SE,135,10.0,14.0,95,-99.99,,,-99.99,,2013-05-27 21:43:00,
2013-05-27 17:53:00,65.0,63.0,29.80,SE,135,8.0,13.0,94,-99.99,,,-99.99,,2013-05-27 21:53:00,
2013-05-27 18:02:00,66.0,64.0,29.82,SSE,157,6.0,9.0,93,-99.99,,,-99.99,,2013-05-27 22:02:00,
2013-05-27 18:12:00,67.0,64.0,29.84,South,180,7.0,11.0,92,-99.99,,,-99.99,,2013-05-27 22:12:00,
2013-05-27 18:22:00,68.0,65.0,29.84,South,180,6.0,10.0,91,-99.99,,,-99.99,,2013-05-27 22:22:00,
2013-05-27 18:32:00,69.0,65.0,29.85,SSW,202,8.0,12.0,88,-99.99,,,-99.99,,2013-05-27 22:32:00,
2013-05-27 18:42:00,69.0,65.0,29.86,SSW,202,10.0,16.0,87,-99.99,,,-99.99,,2013-05-27 22:42:00,
2013-05-27 18:52:00,70.0,65.0,29.85,SSW,202,9.0,14.0,86,-99.99,,,-99.99,,2013-05-27 22:52:00,
2013-05-27 19:02:00,70.0,65.0,29.86,SSW,202,10.0,15.0,86,-99.99,,,-99.99,,2013-05-27 23:02:00,
2013-05-27 19:12:00,70.0,65.0,29.86,SSW,202,10.0,14.0,84,-99.99,,,-99.99,,2013-05-27 23:12:00,
2013-05-27 19:22:00,70.0,65.0,29.86,SSW,202,11.0,15.0,83,-99.99,,,-99.99,,2013-05-27 23:22:00,
2013-05-27 19:32:00,70.0,64.0,29.86,SSW,202,11.0,17.0,84,-99.99,,,-99.99,,2013-05-27 23:32:00,
2013-05-27 19:42:00,69.0,64.0,29.85,SSW,202,9.0,16.0,84,-99.99,,,-99.99,,2013-05-27 23:42:00,
2013-05-27 19:52:00,70.0,64.0,29.85,SSW,202,9.0,13.0,83,-99.99,,,-99.99,,2013-05-27 23:52:00,
2013-05-27 20:01:00,70.0,64.0,29.86,SSW,202,8.0,13.0,83,-99.99,,,-99.99,,2013-05-28 00:01:00,
2013-05-27 20:11:00,70.0,64.0,29.86,SSW,202,8.0,12.0,82,-99.99,,,-99.99,,2013-05-28 00:11:00,
2013-05-27 20:21:00,70.0,65.0,29.85,SSW,202,7.0,10.0,82,-99.99,,,-99.99,,2013-05-28 00:21:00,
2013-05-27 20:31:00,70.0,64.0,29.85,SSW,202,8.0,12.0,83,-99.99,,,-99.99,,2013-05-28 00:31:00,
2013-05-27 20:41:00,69.0,64.0,29.86,South,180,6.0,10.0,85,-99.99,,,-99.99,,2013-05-28 00:41:00,
2013-05-27 20:52:00,68.0,64.0,29.86,SSW,202,6.0,10.0,87,-99.99,,,-99.99,,2013-05-28 00:52:00,
2013-05-27 21:01:00,68.0,64.0,29.86,SSW,202,5.0,8.0,88,-99.99,,,-99.99,,2013-05-28 01:01:00,
2013-05-27 21:11:00,68.0,64.0,29.86,South,180,6.0,8.0,88,-99.99,,,-99.99,,2013-05-28 01:11:00,
2013-05-27 21:21:00,68.0,64.0,29.87,SSW,202,6.0,9.0,88,-99.99,,,-99.99,,2013-05-28 01:21:00,
2013-05-27 21:31:00,68.0,64.0,29.87,SSW,202,5.0,8.0,89,-99.99,,,-99.99,,2013-05-28 01:31:00,
2013-05-27 21:41:00,67.0,64.0,29.87,South,180,4.0,7.0,90,-99.99,,,-99.99,,2013-05-28 01:41:00,
2013-05-27 21:52:00,67.0,64.0,29.86,South,180,4.0,7.0,91,-99.99,,,-99.99,,2013-05-28 01:52:00,
2013-05-27 22:02:00,66.0,64.0,29.87,SSE,157,3.0,5.0,92,-99.99,,,-99.99,,2013-05-28 02:02:00,
2013-05-27 22:11:00,66.0,64.0,29.87,SSE,157,3.0,4.0,94,-99.99,,,-99.99,,2013-05-28 02:11:00,
2013-05-27 22:21:00,65.0,64.0,29.87,South,180,2.0,5.0,94,-99.99,,,-99.99,,2013-05-28 02:21:00,
2013-05-27 22:32:00,66.0,64.0,29.88,SSW,202,4.0,6.0,93,-99.99,,,-99.99,,2013-05-28 02:32:00,
2013-05-27 22:42:00,67.0,64.0,29.88,SSW,202,5.0,8.0,92,-99.99,,,-99.99,,2013-05-28 02:42:00,
2013-05-27 22:51:00,67.0,65.0,29.88,SSW,202,4.0,7.0,91,-99.99,,,-99.99,,2013-05-28 02:51:00,
2013-05-27 23:01:00,67.0,65.0,29.89,SSW,202,4.0,6.0,91,-99.99,,,-99.99,,2013-05-28 03:01:00,
2013-05-27 23:11:00,68.0,65.0,29.90,SSW,202,4.0,6.0,91,-99.99,,,-99.99,,2013-05-28 03:11:00,
2013-05-27 23:21:00,68.0,65.0,29.89,South,180,6.0,10.0,89,-99.99,,,-99.99,,2013-05-28 03:21:00,
2013-05-27 23:33:00,70.0,65.0,29.90,South,180,7.0,10.0,86,-99.99,,,-99.99,,2013-05-28 03:33:00,
2013-05-27 23:43:00,70.0,65.0,29.91,SSE,157,5.0,8.0,86,-99.99,,,-99.99,,2013-05-28 03:43:00,
2013-05-27 23:53:00,69.0,65.0,29.91,SSE,157,5.0,9.0,88,-99.99,,,-99.99,,2013-05-28 03:53:00,